When you browse on this site, cookies collect data to enhance your experience and personalize the content and advertising you see.
Visit our Privacy Policy to learn more. By continuing to use the site, you agree to this use of cookies and data.
  • In Switzerland
  • List of Countries
  • For 7 days
  • Water Temperature
  • Weather Map
  • Weather Widgets
  • user-avatar
    Login

    Hourly Weather Richmond

    Today, 25 January, Saturday

    Time Temperature Precipitation Wind Pressure Humidity
    00:00 +13°C° 0.5 mm 6 mps 756 mmHg 89%
    01:00 +13°C° 0 mm 5 mps 756 mmHg 87%
    02:00 +12°C° 7 mm 4 mps 756 mmHg 89%
    03:00 +11°C° 7 mm 4 mps 755 mmHg 92%
    04:00 +10°C° 7 mm 3 mps 755 mmHg 95%
    05:00 +10°C° 3.1 mm 3 mps 755 mmHg 94%
    06:00 +9°C° 3.1 mm 2 mps 754 mmHg 94%
    07:00 +10°C° 0 mm 1 mps 755 mmHg 93%
    08:00 +11°C° 0.2 mm 1 mps 755 mmHg 89%
    09:00 +12°C° 0.2 mm 1 mps 755 mmHg 85%
    10:00 +13°C° 0.2 mm 2 mps 755 mmHg 81%
    11:00 +13°C° 0.1 mm 2 mps 755 mmHg 79%
    12:00 +13°C° 0.1 mm 3 mps 755 mmHg 76%
    13:00 +14°C° 0.1 mm 3 mps 754 mmHg 74%
    14:00 +14°C° 0.1 mm 3 mps 755 mmHg 70%
    15:00 +13°C° 0.1 mm 3 mps 755 mmHg 67%
    16:00 +13°C° 0.1 mm 3 mps 755 mmHg 64%
    17:00 +11°C° 0 mm 3 mps 755 mmHg 68%
    18:00 +10°C° 0 mm 3 mps 756 mmHg 73%
    19:00 +8°C° 0 mm 2 mps 756 mmHg 77%
    20:00 +7°C° 0 mm 2 mps 757 mmHg 78%
    21:00 +7°C° 0 mm 2 mps 757 mmHg 78%
    22:00 +7°C° 0 mm 1 mps 757 mmHg 79%
    23:00 +5°C° 0 mm 2 mps 757 mmHg 78%

    Tomorrow, 26 January, Sunday

    Time Temperature Precipitation Wind Pressure Humidity
    00:00 +5°C° 0 mm 2 mps 757 mmHg 76%
    01:00 +4°C° 0 mm 2 mps 757 mmHg 75%
    02:00 +3°C° 0 mm 2 mps 757 mmHg 75%
    03:00 +3°C° 0 mm 2 mps 757 mmHg 75%
    04:00 +3°C° 0 mm 2 mps 757 mmHg 75%
    05:00 +2°C° 0 mm 2 mps 757 mmHg 76%
    06:00 +2°C° 0 mm 2 mps 757 mmHg 76%
    07:00 +2°C° 0 mm 2 mps 757 mmHg 76%
    08:00 +2°C° 0 mm 3 mps 757 mmHg 70%
    09:00 +4°C° 0 mm 3 mps 757 mmHg 65%
    10:00 +5°C° 0 mm 3 mps 757 mmHg 59%
    11:00 +7°C° 0 mm 3 mps 757 mmHg 56%
    12:00 +8°C° 0 mm 3 mps 757 mmHg 53%
    13:00 +9°C° 0 mm 3 mps 756 mmHg 50%
    14:00 +9°C° 0 mm 3 mps 756 mmHg 52%
    15:00 +9°C° 0 mm 3 mps 756 mmHg 53%
    16:00 +9°C° 0 mm 3 mps 756 mmHg 54%
    17:00 +8°C° 0 mm 3 mps 756 mmHg 58%
    18:00 +5°C° 0 mm 3 mps 756 mmHg 62%
    19:00 +4°C° 0 mm 3 mps 756 mmHg 67%
    20:00 +4°C° 0 mm 3 mps 756 mmHg 69%
    21:00 +4°C° 0 mm 2 mps 757 mmHg 70%
    22:00 +3°C° 0 mm 2 mps 757 mmHg 72%
    23:00 +3°C° 0 mm 2 mps 757 mmHg 74%

    Day after tomorrow, 27 January, Monday

    Time Temperature Precipitation Wind Pressure Humidity
    00:00 +3°C° 0 mm 2 mps 756 mmHg 77%
    01:00 +2°C° 0 mm 2 mps 756 mmHg 79%
    02:00 +2°C° 0 mm 2 mps 756 mmHg 79%
    03:00 +2°C° 0 mm 2 mps 755 mmHg 79%
    04:00 +2°C° 0 mm 2 mps 755 mmHg 79%
    05:00 +2°C° 0 mm 2 mps 755 mmHg 79%
    06:00 +4°C° 0 mm 1 mps 755 mmHg 79%
    07:00 +4°C° 0 mm 1 mps 755 mmHg 79%
    08:00 +4°C° 0 mm 2 mps 755 mmHg 76%
    09:00 +6°C° 0 mm 2 mps 755 mmHg 72%
    10:00 +7°C° 0 mm 2 mps 755 mmHg 69%
    11:00 +8°C° 0 mm 2 mps 754 mmHg 66%
    12:00 +10°C° 0 mm 3 mps 754 mmHg 63%
    13:00 +11°C° 0 mm 3 mps 753 mmHg 60%
    14:00 +12°C° 0.1 mm 2 mps 753 mmHg 63%
    15:00 +12°C° 0.1 mm 2 mps 753 mmHg 66%
    16:00 +10°C° 0.1 mm 2 mps 752 mmHg 70%
    17:00 +9°C° 0.1 mm 2 mps 753 mmHg 73%
    18:00 +8°C° 0.1 mm 2 mps 753 mmHg 76%
    19:00 +7°C° 0.1 mm 2 mps 754 mmHg 79%
    20:00 +6°C° 0 mm 2 mps 754 mmHg 77%
    21:00 +4°C° 0 mm 3 mps 755 mmHg 75%
    22:00 +3°C° 0 mm 3 mps 755 mmHg 73%
    23:00 +3°C° 0 mm 3 mps 755 mmHg 72%

    28 January, Tuesday

    Time Temperature Precipitation Wind Pressure Humidity
    00:00 +2°C° 0 mm 3 mps 755 mmHg 72%
    01:00 +3°C° 0 mm 2 mps 756 mmHg 71%
    02:00 +2°C° 0 mm 2 mps 756 mmHg 73%
    03:00 +2°C° 0 mm 2 mps 756 mmHg 75%
    04:00 +1°C° 0 mm 2 mps 756 mmHg 78%
    05:00 +2°C° 0 mm 1 mps 756 mmHg 79%
    06:00 +1°C° 0 mm 1 mps 757 mmHg 80%
    07:00 +1°C° 0 mm 1 mps 757 mmHg 81%
    08:00 +3°C° 0 mm 1 mps 757 mmHg 73%
    09:00 +3°C° 0 mm 2 mps 758 mmHg 64%
    10:00 +5°C° 0 mm 2 mps 758 mmHg 56%
    11:00 +6°C° 0 mm 2 mps 758 mmHg 53%
    12:00 +7°C° 0 mm 2 mps 757 mmHg 50%
    13:00 +8°C° 0 mm 2 mps 757 mmHg 47%
    14:00 +8°C° 0 mm 2 mps 757 mmHg 47%
    15:00 +8°C° 0 mm 2 mps 756 mmHg 48%
    16:00 +9°C° 0 mm 2 mps 756 mmHg 49%
    17:00 +8°C° 0 mm 1 mps 757 mmHg 55%
    18:00 +7°C° 0 mm 1 mps 757 mmHg 61%
    19:00 +4°C° 0 mm 0 mps 758 mmHg 67%
    20:00 +5°C° 0 mm 1 mps 758 mmHg 69%
    21:00 +4°C° 0 mm 1 mps 759 mmHg 71%
    22:00 +3°C° 0 mm 2 mps 759 mmHg 74%
    23:00 +2°C° 0 mm 2 mps 759 mmHg 76%

    29 January, Wednesday

    Time Temperature Precipitation Wind Pressure Humidity
    00:00 +3°C° 0 mm 1 mps 759 mmHg 78%
    01:00 +2°C° 0 mm 1 mps 759 mmHg 80%
    02:00 +2°C° 0 mm 1 mps 759 mmHg 81%
    03:00 +1°C° 0 mm 1 mps 759 mmHg 82%
    04:00 +1°C° 0 mm 1 mps 759 mmHg 83%
    05:00 +1°C° 0 mm 1 mps 759 mmHg 82%
    06:00 +1°C° 0 mm 1 mps 759 mmHg 81%
    07:00 0°C° 0 mm 0 mps 760 mmHg 81%
    08:00 +3°C° 0 mm 1 mps 760 mmHg 74%
    09:00 +4°C° 0 mm 1 mps 760 mmHg 68%
    10:00 +5°C° 0 mm 1 mps 760 mmHg 61%
    11:00 +6°C° 0 mm 1 mps 760 mmHg 60%
    12:00 +7°C° 0 mm 1 mps 759 mmHg 58%
    13:00 +8°C° 0 mm 1 mps 759 mmHg 56%
    14:00 +8°C° 0 mm 1 mps 759 mmHg 58%
    15:00 +7°C° 0 mm 1 mps 759 mmHg 60%
    16:00 +7°C° 0 mm 1 mps 759 mmHg 61%
    17:00 +6°C° 0 mm 0 mps 759 mmHg 64%
    18:00 +5°C° 0 mm 0 mps 759 mmHg 67%
    19:00 +4°C° 0 mm 0 mps 759 mmHg 70%
    20:00 +4°C° 0 mm 0 mps 760 mmHg 71%
    21:00 +4°C° 0 mm 0 mps 760 mmHg 71%
    22:00 +5°C° 0 mm 1 mps 761 mmHg 72%
    23:00 +5°C° 0 mm 1 mps 760 mmHg 74%

    30 January, Thursday

    Time Temperature Precipitation Wind Pressure Humidity
    00:00 +3°C° 0 mm 2 mps 760 mmHg 76%
    01:00 +3°C° 0 mm 2 mps 760 mmHg 78%
    02:00 +2°C° 0 mm 2 mps 761 mmHg 78%
    03:00 +1°C° 0 mm 2 mps 761 mmHg 77%
    04:00 +1°C° 0 mm 2 mps 761 mmHg 76%
    05:00 -1°C° 0 mm 2 mps 762 mmHg 77%
    06:00 -1°C° 0 mm 2 mps 762 mmHg 78%
    07:00 -2°C° 0 mm 2 mps 762 mmHg 79%
    08:00 +1°C° 0 mm 2 mps 763 mmHg 71%
    09:00 +2°C° 0 mm 2 mps 764 mmHg 64%
    10:00 +2°C° 0 mm 3 mps 765 mmHg 56%
    11:00 +3°C° 0 mm 3 mps 764 mmHg 52%
    12:00 +5°C° 0 mm 3 mps 764 mmHg 48%
    13:00 +7°C° 0 mm 2 mps 764 mmHg 45%
    14:00 +7°C° 0 mm 2 mps 764 mmHg 44%
    15:00 +7°C° 0 mm 2 mps 764 mmHg 43%
    16:00 +6°C° 0 mm 2 mps 764 mmHg 43%
    17:00 +5°C° 0 mm 2 mps 765 mmHg 47%
    18:00 +4°C° 0 mm 1 mps 765 mmHg 52%
    19:00 +3°C° 0 mm 1 mps 766 mmHg 56%
    20:00 +2°C° 0 mm 1 mps 766 mmHg 59%
    21:00 +2°C° 0 mm 1 mps 767 mmHg 61%
    22:00 +1°C° 0 mm 1 mps 767 mmHg 64%
    23:00 +1°C° 0 mm 1 mps 767 mmHg 65%
    Show more